Waarnemingen

Advertentie
Mijn weer
Manresa, Spanje (8174): temperatuur & dauwpunt: 15.02.2019 19:00:00 - 21.02.2019 19:00:00 (CET)Manresa, Spanje (8174): windsnelheid & windstoten: 15.02.2019 19:00:00 - 21.02.2019 19:00:00 (CET)Manresa, Spanje (8174): windrichting: 15.02.2019 19:00:00 - 21.02.2019 19:00:00 (CET)Manresa, Spanje (8174): luchtdruk: 15.02.2019 19:00:00 - 21.02.2019 19:00:00 (CET)Manresa, Spanje (8174): zicht: 15.02.2019 19:00:00 - 21.02.2019 19:00:00 (CET)Manresa, Spanje (8174): Zonneschijnduur: 15.02.2019 19:00:00 - 21.02.2019 19:00:00 (CET)Manresa, Spanje (8174): neerslag: 15.02.2019 19:00:00 - 21.02.2019 19:00:00 (CET)
Datum & Tijd tt [°C] td [°C] ff [km/u] ff [kn] fx [km/u] fx [kn] dd ppp [hPa] vv [km] sd [min] rr [mm]
21.02.2019 19:00:00 - - - - - - - - - - -
21.02.2019 18:00:00 15,5 6,5 10 5 21 11 Z 1028,1 14 60 0,0
21.02.2019 17:00:00 17,2 3,8 10 6 20 11 Z 1027,6 16 60 0,0
21.02.2019 16:00:00 17,9 1,5 8 4 13 7 Z 1027,4 20 60 0,0
21.02.2019 15:00:00 17,2 3,8 4 2 8 5 Z 1027,8 20 60 0,0
21.02.2019 14:00:00 14,2 4,5 3 1 8 4 WZW 1028,8 9 60 0,0
21.02.2019 13:00:00 10,4 3,6 3 1 9 5 ZZW 1030,0 9 60 -
21.02.2019 12:00:00 7,3 2,7 2 1 8 4 W 1031,0 7 60 0,0
21.02.2019 11:00:00 4,3 1,9 3 2 8 4 N 1031,6 4,2 37 0,0
21.02.2019 10:00:00 1,1 0,4 4 2 6 3 NO 1032,1 2,0 0 0,0
21.02.2019 09:00:00 -0,2 -1,0 4 2 8 4 NO 1032,0 1,4 0 0,0
21.02.2019 08:00:00 -0,7 -1,4 3 1 8 4 NNO 1031,3 2,7 0 0,0
21.02.2019 07:00:00 -0,6 -1,4 6 3 8 4 NNO 1030,6 2,7 0 -
21.02.2019 06:00:00 -0,4 -1,2 3 2 5 3 NNO 1030,5 2,0 0 0,0
21.02.2019 05:00:00 0,1 -1,0 1 1 5 3 NW 1030,1 2,5 0 0,0
21.02.2019 04:00:00 1,0 0,0 2 1 4 2 N 1029,9 2,9 0 0,0
21.02.2019 03:00:00 1,5 0,4 4 2 5 3 NNO 1029,8 3,1 0 0,0
21.02.2019 02:00:00 2,1 0,9 3 1 8 4 NO 1029,6 3,5 0 0,0
21.02.2019 01:00:00 3,0 1,5 5 3 8 4 NNO 1029,4 4,3 0 -
21.02.2019 00:00:00 - - - - - - - - - - -
20.02.2019 23:00:00 - - - - - - - - - - -
20.02.2019 22:00:00 - - - - - - - - - - -
20.02.2019 21:00:00 - - - - - - - - - - -
20.02.2019 20:00:00 - - - - - - - - - - -
20.02.2019 19:00:00 - - - - - - - - - - -
20.02.2019 18:00:00 - - - - - - - - - - -
20.02.2019 17:00:00 - - - - - - - - - - -
20.02.2019 16:00:00 - - - - - - - - - - -
20.02.2019 15:00:00 - - - - - - - - - - -
20.02.2019 14:00:00 - - - - - - - - - - -
20.02.2019 13:00:00 - - - - - - - - - - -
20.02.2019 12:00:00 - - - - - - - - - - -
20.02.2019 11:00:00 - - - - - - - - - - -
20.02.2019 10:00:00 - - - - - - - - - - -
20.02.2019 09:00:00 - - - - - - - - - - -
20.02.2019 08:00:00 - - - - - - - - - - -
20.02.2019 07:00:00 - - - - - - - - - - -
20.02.2019 06:00:00 - - - - - - - - - - -
20.02.2019 05:00:00 - - - - - - - - - - -
20.02.2019 04:00:00 - - - - - - - - - - -
20.02.2019 03:00:00 - - - - - - - - - - -
20.02.2019 02:00:00 - - - - - - - - - - -
20.02.2019 01:00:00 - - - - - - - - - - -
20.02.2019 00:00:00 - - - - - - - - - - -
19.02.2019 23:00:00 - - - - - - - - - - -
19.02.2019 22:00:00 - - - - - - - - - - -
19.02.2019 21:00:00 8,4 4,8 3 2 14 7 WZW 1023,1 13 0 0,0
19.02.2019 20:00:00 9,6 5,0 8 4 22 12 Z 1022,7 18 0 0,0
19.02.2019 19:00:00 10,9 4,6 10 5 21 11 Z 1021,8 20 7 -
19.02.2019 18:00:00 12,6 4,5 10 5 23 12 Z 1021,0 20 60 0,0
19.02.2019 17:00:00 14,1 4,3 11 6 23 12 Z 1020,8 20 60 0,0
19.02.2019 16:00:00 14,8 3,9 11 6 22 12 Z 1020,8 20 60 0,0
19.02.2019 15:00:00 15,0 5,0 9 5 18 10 ZZW 1021,1 20 59 0,0
19.02.2019 14:00:00 14,4 5,1 7 4 17 9 Z 1021,8 16 60 0,0
19.02.2019 13:00:00 12,7 4,6 3 2 9 5 W 1022,7 17 60 -
19.02.2019 12:00:00 10,5 4,5 2 1 9 5 NO 1023,5 12 60 0,0
19.02.2019 11:00:00 8,4 3,8 4 2 9 5 NO 1023,8 9 53 0,0
19.02.2019 10:00:00 5,5 3,0 4 2 8 4 NO 1024,2 5 3 0,0
19.02.2019 09:00:00 4,0 2,5 3 2 6 3 NO 1024,1 6 0 0,0
19.02.2019 08:00:00 2,5 1,7 3 1 4 2 NNO 1023,6 4,0 0 0,0
19.02.2019 07:00:00 2,8 1,7 1 1 5 3 W 1023,3 2,4 0 -
19.02.2019 06:00:00 3,7 2,3 2 1 5 3 W 1023,2 3,8 0 0,0
19.02.2019 05:00:00 4,3 2,9 1 1 3 1 N 1022,9 6 0 0,0
19.02.2019 04:00:00 4,8 2,7 2 1 8 4 N 1023,0 8 0 0,0
19.02.2019 03:00:00 5,2 3,0 5 3 8 4 NNO 1023,3 10 0 0,0
19.02.2019 02:00:00 4,8 2,9 3 2 9 5 N 1023,5 9 0 0,0
19.02.2019 01:00:00 4,8 2,9 7 4 13 7 ONO 1023,7 10 0 -
19.02.2019 00:00:00 5,6 3,6 6 4 10 6 NO 1023,5 8 0 0,0
18.02.2019 23:00:00 6,5 4,8 2 1 7 4 NO 1023,4 5 0 0,0
18.02.2019 22:00:00 7,3 5,5 3 1 7 4 ONO 1023,0 7 0 0,0
18.02.2019 21:00:00 9,4 6,8 5 3 19 11 Z 1022,1 9 0 0,0
18.02.2019 20:00:00 10,0 7,1 13 7 22 12 ZZW 1021,6 15 0 0,0
18.02.2019 19:00:00 11,4 7,0 12 6 21 11 Z 1020,9 19 8 -
18.02.2019 18:00:00 13,9 6,1 9 5 19 10 Z 1020,1 20 60 0,0
18.02.2019 17:00:00 15,1 4,8 10 5 21 11 Z 1020,2 20 60 0,0
18.02.2019 16:00:00 15,6 4,3 9 5 19 10 Z 1020,5 20 60 0,0
18.02.2019 15:00:00 15,2 4,5 8 5 16 9 Z 1021,0 20 60 0,0
18.02.2019 14:00:00 13,9 5,3 5 3 11 6 Z 1022,1 12 60 0,0
18.02.2019 13:00:00 10,2 3,8 3 2 7 4 WNW 1023,6 11 60 -
18.02.2019 12:00:00 7,1 1,7 3 2 7 4 Z 1025,0 12 60 0,0
18.02.2019 11:00:00 4,4 1,1 4 2 8 4 Z 1025,7 7 24 0,0
18.02.2019 10:00:00 2,1 1,1 3 1 8 5 NO 1026,2 2,8 0 0,0
18.02.2019 09:00:00 1,8 1,1 5 3 10 6 NO 1026,0 2,4 0 0,0
18.02.2019 08:00:00 2,2 1,7 6 3 9 5 NNO 1025,4 0,7 0 0,0
18.02.2019 07:00:00 2,4 1,7 5 3 9 5 NO - - 0 -
18.02.2019 06:00:00 2,6 1,5 5 3 11 6 NNO 1025,4 2,2 0 0,0
18.02.2019 05:00:00 3,3 1,1 6 4 11 6 NO 1025,1 8 0 0,0
18.02.2019 04:00:00 3,6 1,5 5 3 10 5 NO 1025,6 7 0 0,0
18.02.2019 03:00:00 3,7 2,1 7 4 11 6 NNO 1026,1 3,8 0 0,0
18.02.2019 02:00:00 3,8 1,5 6 4 10 5 NO 1026,4 10 0 0,0
18.02.2019 01:00:00 4,5 2,1 5 3 9 5 NO 1026,5 10 0 -
18.02.2019 00:00:00 4,8 2,1 3 2 7 4 NNW 1026,6 10 0 0,0
17.02.2019 23:00:00 5,7 3,9 3 2 6 3 ONO 1026,4 10 0 0,0
17.02.2019 22:00:00 7,8 5,5 4 2 13 7 Z 1025,8 4,4 0 0,0
17.02.2019 21:00:00 8,5 5,3 5 3 13 7 ZZW 1025,3 12 0 0,0
17.02.2019 20:00:00 9,7 4,6 8 5 20 11 ZZW 1024,8 20 0 0,0
17.02.2019 19:00:00 11,4 4,3 11 6 25 13 Z 1024,0 20 3 -
17.02.2019 18:00:00 13,5 4,3 13 7 26 14 Z 1023,6 20 60 0,0
17.02.2019 17:00:00 15,6 0,6 11 6 24 13 Z 1023,4 20 60 0,0
17.02.2019 16:00:00 16,4 -3,6 11 6 23 12 Z 1023,7 20 60 0,0
17.02.2019 15:00:00 16,0 -2,5 13 7 25 13 Z 1024,1 20 60 0,0
17.02.2019 14:00:00 15,2 -2,7 11 6 19 11 Z 1025,1 20 60 0,0
17.02.2019 13:00:00 12,0 -4,8 4 2 7 4 W 1026,6 20 60 -
17.02.2019 12:00:00 8,0 -3,9 3 2 8 4 NO 1028,2 20 60 0,0
17.02.2019 11:00:00 4,6 -4,2 3 2 6 3 NNO 1029,2 20 60 0,0
17.02.2019 10:00:00 1,2 -4,2 3 2 7 4 ONO 1030,2 20 60 0,0
17.02.2019 09:00:00 -1,9 -4,5 4 2 6 3 NO 1030,8 20 4 0,0
17.02.2019 08:00:00 -2,9 -5,1 4 2 5 3 NNO 1030,6 20 0 0,0
17.02.2019 07:00:00 -2,6 -4,8 3 1 6 3 N 1030,5 20 0 -
17.02.2019 06:00:00 -2,2 -4,5 4 2 6 3 NNO 1030,4 20 0 0,0
17.02.2019 05:00:00 -1,6 -4,5 3 2 5 3 W 1030,1 20 0 0,0
17.02.2019 04:00:00 -1,2 -4,5 3 2 5 3 NNO 1030,2 20 0 0,0
17.02.2019 03:00:00 -0,2 -3,9 2 1 6 3 NNO 1030,4 20 0 0,0
17.02.2019 02:00:00 0,7 -3,6 3 1 7 4 NNO 1030,7 20 0 0,0
17.02.2019 01:00:00 1,5 -3,6 3 2 5 3 NNO 1030,8 20 0 -
17.02.2019 00:00:00 3,1 -2,7 2 1 6 3 NNW 1030,5 20 0 0,0
16.02.2019 23:00:00 4,0 -2,7 2 1 5 3 N 1030,5 20 0 0,0
16.02.2019 22:00:00 5,7 -0,7 3 2 6 3 NNO 1030,0 14 0 0,0
16.02.2019 21:00:00 7,8 -0,3 3 1 4 2 W 1029,3 20 0 0,0
16.02.2019 20:00:00 10,4 0,6 1 1 20 11 OZO 1028,7 19 0 0,0
16.02.2019 19:00:00 13,4 0,0 9 5 23 12 Z 1028,0 20 13 -
16.02.2019 18:00:00 16,2 -1,0 9 5 20 11 Z 1027,3 20 60 0,0
16.02.2019 17:00:00 18,8 -8,6 8 4 14 8 Z 1027,1 20 60 0,0
16.02.2019 16:00:00 19,0 -10,3 5 3 13 7 ZZO 1027,6 20 60 0,0
16.02.2019 15:00:00 19,1 -7,5 5 3 9 5 ZZW 1028,2 20 60 0,0
16.02.2019 14:00:00 16,2 -2,5 3 2 8 4 ZW 1029,5 18 60 0,0
16.02.2019 13:00:00 12,0 -5,1 3 2 6 4 NNO 1031,0 20 60 -
16.02.2019 12:00:00 8,7 -3,3 3 1 7 4 NO 1032,2 20 60 0,0
16.02.2019 11:00:00 5,2 -2,7 3 2 7 4 W 1033,0 20 60 0,0
16.02.2019 10:00:00 1,6 -3,6 4 2 6 3 NNO 1033,5 20 60 0,0
16.02.2019 09:00:00 -1,7 -4,5 5 3 8 5 NNO 1033,9 20 2 0,0
16.02.2019 08:00:00 -3,0 -4,8 2 1 6 3 N 1033,3 20 0 0,0
16.02.2019 07:00:00 -2,2 -4,5 5 3 7 4 NNO 1032,8 18 0 -
16.02.2019 06:00:00 -2,3 -4,5 3 1 6 4 NNO 1032,7 14 0 0,0
16.02.2019 05:00:00 -1,6 -4,5 3 2 11 6 NNO 1032,2 20 0 0,0
16.02.2019 04:00:00 -1,3 -4,2 3 1 5 3 W 1032,3 20 0 0,0
16.02.2019 03:00:00 -0,5 -3,9 4 2 6 4 NNO 1032,3 19 0 0,0
16.02.2019 02:00:00 0,5 -3,9 3 2 8 5 NNO 1032,3 20 0 0,0
16.02.2019 01:00:00 1,2 -3,6 3 2 5 3 NNO 1032,1 20 0 -
16.02.2019 00:00:00 2,6 -3,3 3 2 8 4 NNO 1031,7 20 0 0,0
15.02.2019 23:00:00 3,8 -3,0 4 2 8 5 NNO 1031,3 20 0 0,0
15.02.2019 22:00:00 5,1 -2,2 3 2 8 5 NNO 1031,0 20 0 0,0
15.02.2019 21:00:00 6,8 -3,3 3 2 6 3 NNO 1030,3 20 0 0,0
15.02.2019 20:00:00 9,8 0,4 3 1 10 6 ZW 1029,6 20 0 0,0
15.02.2019 19:00:00 12,7 -0,3 9 5 17 9 Z 1028,7 20 12 -

tt = temperatuur
td = dauwpunt
ff = windsnelheid
fx = windstoten
dd = windrichting
ppp = luchtdruk
vv = zicht
sd = Zonneschijnduur
rr = neerslag

Weerstations in de omgeving